Surface/Precipitation History
04/25/2015 19:48  to  4/26/2015 19:48
Change End Date:
Date/Time
(MDT)
Sf
Temp Chem Water Layer Surface Precipitation
Sf Sub Frz Factor Pct Depth IcePct Cond Salin Type Intens Accum Rate
04/26/2015 19:40 Dry 52.2F 47F - - - - - 0 mhos 0 None None 0.01 in 0.0 iph
04/26/2015 19:30 Dry 53.2F 47F - - - - - 0 mhos 0 None None 0.02 in 0.0 iph
04/26/2015 19:23 Dry 53.6F 47F - - - - - 0 mhos 0 None None 0.02 in 0.0 iph
04/26/2015 19:20 Dry 54.0F 47F - - - - - 0 mhos 0 None None 0.02 in 0.0 iph
04/26/2015 19:10 Dry 53.2F 47F - - - - - 0 mhos 0 None None 0.02 in 0.0 iph
04/26/2015 19:10 Dry 53.2F 47F - - - - - 0 mhos 0 None None 0.02 in 0.0 iph
04/26/2015 19:00 Dry 53.8F 47F - - - - - 0 mhos 0 None None 0.02 in 0.0 iph
04/26/2015 18:54 Dry 54.5F 47F - - - - - 0 mhos 0 None None 0.02 in 0.0 iph
04/26/2015 18:50 Dry 55.2F 47F - - - - - 0 mhos 0 None None 0.02 in 0.0 iph
04/26/2015 18:41 Dry 57.0F 47F - - - - - 0 mhos 0 None None 0.02 in 0.0 iph
04/26/2015 18:40 Dry 57.2F 47F - - - - - 0 mhos 0 None None 0.02 in 0.0 iph
04/26/2015 18:30 Dry 59.9F 47F - - - - - 0 mhos 0 None None 0.02 in 0.0 iph
04/26/2015 18:26 Dry 59.4F 47F - - - - - 0 mhos 0 None None 0.02 in 0.0 iph
04/26/2015 18:20 Dry 58.5F 47F - - - - - 0 mhos 0 None None 0.02 in 0.0 iph
04/26/2015 18:11 Trace Moisture 57.6F 47F - 5 - - - 0 mhos 1 None None 0.02 in 0.0 iph
Date/Time
(MDT)
Sf
Temp Chem Water Layer Surface Precipitation
Sf Sub Frz Factor Pct Depth IcePct Cond Salin Type Intens Accum Rate
04/26/2015 18:10 Trace Moisture 58.3F 47F - 5 - - - 0 mhos 1 None None 0.02 in 0.0 iph
04/26/2015 18:00 Dry 56.7F 47F - - - - - 0 mhos 0 None None 0.02 in 0.0 iph
04/26/2015 17:55 Dry 55.8F 47F - - - - - 0 mhos 0 None None 0.03 in 0.0 iph
04/26/2015 17:50 Dry 55.6F 47F - - - - - 0 mhos 0 None None 0.03 in 0.0 iph
04/26/2015 17:40 Dry 55.8F 46F - - - - - 0 mhos 0 None None 0.04 in 0.0 iph
04/26/2015 17:30 Dry 57.4F 46F - - - - - 0 mhos 0 None None 0.05 in 0.0 iph
04/26/2015 17:23 Dry 59.7F 46F - - - - - 0 mhos 0 None None 0.05 in 0.0 iph
04/26/2015 17:20 Dry 59.5F 46F - - - - - 0 mhos 0 None None 0.05 in 0.0 iph
04/26/2015 17:10 Dry 59.5F 46F - - - - - 0 mhos 0 None None 0.06 in 0.0 iph
04/26/2015 17:09 Dry 59.5F 46F - - - - - 0 mhos 0 None None 0.06 in 0.0 iph
04/26/2015 16:59 Dry 59.7F 46F - - - - - 0 mhos 0 None None 0.07 in 0.0 iph
04/26/2015 16:52 Dry 60.4F 46F - - - - - 0 mhos 0 None None 0.07 in 0.0 iph
04/26/2015 16:49 Dry 60.3F 46F - - - - - 0 mhos 0 None None 0.07 in 0.0 iph
04/26/2015 16:40 Dry 60.8F 46F - - - - - 0 mhos 0 None None 0.08 in 0.0 iph
04/26/2015 16:39 Dry 60.8F 46F - - - - - 0 mhos 0 None None 0.08 in 0.0 iph
Date/Time
(MDT)
Sf
Temp Chem Water Layer Surface Precipitation
Sf Sub Frz Factor Pct Depth IcePct Cond Salin Type Intens Accum Rate
04/26/2015 16:29 Dry 62.1F 46F - - - - - 0 mhos 0 None None 0.08 in 0.0 iph
04/26/2015 16:22 Dry 63.1F 46F - - - - - 0 mhos 0 None None 0.08 in 0.0 iph
04/26/2015 16:19 Dry 63.7F 46F - - - - - 0 mhos 0 None None 0.08 in 0.0 iph
04/26/2015 16:10 Dry 66.4F 46F - - - - - 0 mhos 0 None None 0.08 in 0.0 iph
04/26/2015 16:09 Dry 66.4F 46F - - - - - 0 mhos 0 None None 0.08 in 0.0 iph
04/26/2015 15:59 Dry 68.5F 46F - - - - - 0 mhos 0 None None 0.08 in 0.0 iph
04/26/2015 15:55 Dry 70.9F 46F - - - - - 0 mhos 0 None None 0.08 in 0.0 iph
04/26/2015 15:49 Dry 74.8F 46F - - - - - 0 mhos 0 None None 0.08 in 0.0 iph
04/26/2015 15:40 Dry 73.0F 46F - - - - - 0 mhos 0 None None 0.08 in 0.0 iph
04/26/2015 15:39 Dry 73.0F 46F - - - - - 0 mhos 0 None None 0.08 in 0.0 iph
04/26/2015 15:29 Dry 72.0F 46F - - - - - 0 mhos 0 None None 0.08 in 0.0 iph
04/26/2015 15:22 Dry 70.7F 46F - - - - - 0 mhos 0 None None 0.08 in 0.0 iph
04/26/2015 15:19 Dry 69.6F 46F - - - - - 0 mhos 0 None None 0.08 in 0.0 iph
04/26/2015 15:11 Dry 68.4F 46F - - - - - 0 mhos 0 None None 0.08 in 0.0 iph
04/26/2015 15:09 Dry 69.8F 46F - - - - - 0 mhos 0 None None 0.08 in 0.0 iph
Date/Time
(MDT)
Sf
Temp Chem Water Layer Surface Precipitation
Sf Sub Frz Factor Pct Depth IcePct Cond Salin Type Intens Accum Rate
04/26/2015 14:59 Dry 67.6F 46F - - - - - 0 mhos 0 None None 0.08 in 0.0 iph
04/26/2015 14:52 Dry 65.7F 46F - - - - - 0 mhos 0 None None 0.08 in 0.0 iph
04/26/2015 14:49 Dry 66.0F 46F - - - - - 0 mhos 0 None None 0.08 in 0.0 iph
04/26/2015 14:40 Dry 64.8F 46F - - - - - 0 mhos 0 None None 0.08 in 0.0 iph
04/26/2015 14:39 Dry 65.8F 46F - - - - - 0 mhos 0 None None 0.08 in 0.0 iph
04/26/2015 14:29 Dry 66.9F 46F - - - - - 0 mhos 0 None None 0.08 in 0.0 iph
04/26/2015 14:22 Dry 64.8F 46F - - - - - 0 mhos 0 None None 0.08 in 0.0 iph
04/26/2015 14:18 Dry 64.9F 46F - - - - - 0 mhos 0 None None 0.08 in 0.0 iph
04/26/2015 14:10 Dry 64.2F 46F - - - - - 0 mhos 0 None None 0.08 in 0.0 iph
04/26/2015 14:08 Dry 63.0F 46F - - - - - 0 mhos 0 None None 0.08 in 0.0 iph
04/26/2015 13:58 Dry 61.7F 46F - - - - - 0 mhos 0 None None 0.08 in 0.0 iph
04/26/2015 13:53 Dry 61.5F 46F - - - - - 0 mhos 0 None None 0.08 in 0.0 iph
04/26/2015 13:48 Dry 63.3F 46F - - - - - 0 mhos 0 None None 0.08 in 0.0 iph
04/26/2015 13:40 Dry 60.6F 46F - - - - - 0 mhos 0 None None 0.08 in 0.0 iph
04/26/2015 13:38 Dry 60.1F 46F - - - - - 0 mhos 0 None None 0.08 in 0.0 iph
Date/Time
(MDT)
Sf
Temp Chem Water Layer Surface Precipitation
Sf Sub Frz Factor Pct Depth IcePct Cond Salin Type Intens Accum Rate
04/26/2015 13:28 Dry 56.8F 46F - - - - - 0 mhos 0 Rain Slight 0.08 in 0.0 iph
04/26/2015 13:22 Dry 55.8F 46F - - - - - 0 mhos 1 None None 0.08 in 0.0 iph
04/26/2015 13:18 Dry 55.6F 46F - - - - - 0 mhos 1 None None 0.08 in 0.0 iph
04/26/2015 13:10 Dry 54.0F 46F - - - - - 0 mhos 2 None None 0.08 in 0.0 iph
04/26/2015 13:08 Dry 53.8F 46F - - - - - 0 mhos 2 None None 0.08 in 0.0 iph
04/26/2015 12:58 Dry 50.5F 46F - - - - - 0 mhos 2 Rain Slight 0.08 in 0.0 iph
04/26/2015 12:54 Dry 49.3F 46F - - - - - 0 mhos 3 Unidentified Slight 0.08 in 0.0 iph
04/26/2015 12:48 Dry 49.1F 46F - - - - - 0 mhos 3 Unidentified Slight 0.08 in 0.0 iph
04/26/2015 12:40 Dry 48.4F 46F - - - - - 0 mhos 4 Snow Slight 0.08 in 0.0 iph
04/26/2015 12:38 Dry 47.8F 46F - - - - - 0 mhos 5 Snow Slight 0.08 in 0.0 iph
04/26/2015 12:28 Wet 46.9F 46F 32F 5 0% 0.00 in 0% 0 mhos 8 Snow Slight 0.08 in 0.0 iph
04/26/2015 12:23 Wet 46.6F 46F 32F 5 0% 0.00 in 0% 0 mhos 9 Snow Slight 0.08 in 0.0 iph
04/26/2015 12:18 Wet 46.8F 46F 32F 5 0% 0.00 in 0% 0 mhos 10 Snow Slight 0.08 in 0.0 iph
04/26/2015 12:10 Wet 46.8F 46F 32F 5 0% 0.00 in 0% 0 mhos 11 Snow Slight 0.08 in 0.0 iph
04/26/2015 12:08 Wet 46.2F 46F 32F 5 0% 0.00 in 0% 0 mhos 11 Snow Slight 0.08 in 0.0 iph
Date/Time
(MDT)
Sf
Temp Chem Water Layer Surface Precipitation
Sf Sub Frz Factor Pct Depth IcePct Cond Salin Type Intens Accum Rate
04/26/2015 11:58 Wet 45.7F 46F 32F 5 0% 0.00 in 0% 0 mhos 11 Snow Slight 0.08 in 0.0 iph
04/26/2015 11:53 Wet 44.8F 46F 32F 5 0% 0.00 in 0% 0 mhos 11 Snow Slight 0.08 in 0.0 iph
04/26/2015 11:48 Wet 44.6F 46F 32F 10 0% 0.00 in 0% 0 mhos 9 Snow Slight 0.08 in 0.0 iph
04/26/2015 11:41 Wet 43.0F 46F 32F 5 0% 0.00 in 0% 0 mhos 11 Snow Slight 0.08 in 0.0 iph
04/26/2015 11:38 Wet 41.9F 46F 32F 5 0% 0.00 in 0% 0 mhos 11 Snow Slight 0.08 in 0.0 iph
04/26/2015 11:28 Wet 41.7F 46F 32F 5 0% 0.00 in 0% 0 mhos 10 Snow Slight 0.08 in 0.0 iph
04/26/2015 11:24 Wet 41.7F 46F 32F 5 0% 0.00 in 0% 0 mhos 10 Snow Slight 0.08 in 0.0 iph
04/26/2015 11:17 Wet 41.7F 46F 32F 5 0% 0.00 in 0% 0 mhos 10 Snow Slight 0.08 in 0.0 iph
04/26/2015 11:10 Wet 40.8F 46F 32F 5 0% 0.00 in 0% 0 mhos 9 Unidentified Slight 0.08 in 0.0 iph
04/26/2015 11:07 Wet 40.5F 46F 32F 5 0% 0.00 in 0% 0 mhos 9 Unidentified Slight 0.08 in 0.0 iph
04/26/2015 10:57 Wet 40.6F 46F 32F 5 0% 0.00 in 0% 0 mhos 7 Unidentified Slight 0.07 in 0.0 iph
04/26/2015 10:53 Wet 39.9F 46F 32F 5 0% 0.00 in 0% 0 mhos 7 Snow Slight 0.07 in 0.0 iph
04/26/2015 10:47 Wet 39.4F 46F 32F 5 0% 0.00 in 0% 0 mhos 6 Snow Slight 0.07 in 0.0 iph
04/26/2015 10:40 Wet 38.1F 46F 32F 5 0% 0.00 in 0% 0 mhos 4 Snow Slight 0.07 in 0.0 iph
04/26/2015 10:37 Wet 37.9F 46F 32F 5 0% 0.00 in 0% 0 mhos 4 Snow Slight 0.07 in 0.0 iph
Date/Time
(MDT)
Sf
Temp Chem Water Layer Surface Precipitation
Sf Sub Frz Factor Pct Depth IcePct Cond Salin Type Intens Accum Rate
04/26/2015 10:27 Wet 36.9F 46F 32F 5 0% 0.10 in 0% 0 mhos 2 Snow Slight 0.07 in 0.0 iph
04/26/2015 10:24 Wet 36.5F 46F 32F 5 0% 0.00 in 0% 0 mhos 2 Snow Slight 0.07 in 0.0 iph
04/26/2015 10:17 Wet 36.7F 46F 32F 5 0% 0.00 in 0% 0 mhos 2 Snow Slight 0.07 in 0.0 iph
04/26/2015 10:10 Dry 36.3F 46F - - - - - 0 mhos 2 Snow Slight 0.07 in 0.0 iph
04/26/2015 10:07 Dry 36.1F 46F - - - - - 0 mhos 2 Snow Slight 0.07 in 0.0 iph
04/26/2015 09:57 Dry 35.4F 46F - - - - - 0 mhos 2 None None 0.07 in 0.0 iph
04/26/2015 09:52 Dry 35.1F 46F - - - - - 0 mhos 2 None None 0.07 in 0.0 iph
04/26/2015 09:47 Dry 34.7F 46F - - - - - 0 mhos 2 None None 0.07 in 0.0 iph
04/26/2015 09:40 Dry 34.2F 46F - - - - - 0 mhos 2 None None 0.07 in 0.0 iph
04/26/2015 09:37 Dry 34.2F 46F - - - - - 0 mhos 2 None None 0.07 in 0.0 iph
04/26/2015 09:27 Dry 33.8F 46F - - - - - 0 mhos 2 None None 0.07 in 0.0 iph
04/26/2015 09:22 Dry 33.4F 46F - - - - - 0 mhos 2 None None 0.07 in 0.0 iph
04/26/2015 09:17 Dry 33.3F 46F - - - - - 0 mhos 2 Snow Slight 0.07 in 0.0 iph
04/26/2015 09:10 Dry 33.1F 46F - - - - - 0 mhos 2 Snow Slight 0.07 in 0.0 iph
04/26/2015 09:07 Dry 33.1F 46F - - - - - 0 mhos 2 Snow Slight 0.07 in 0.0 iph
Date/Time
(MDT)
Sf
Temp Chem Water Layer Surface Precipitation
Sf Sub Frz Factor Pct Depth IcePct Cond Salin Type Intens Accum Rate
04/26/2015 08:57 Dry 32.9F 47F - - - - - 0 mhos 2 Snow Slight 0.07 in 0.0 iph
04/26/2015 08:53 Dry 32.9F 47F - - - - - 0 mhos 2 Snow Slight 0.07 in 0.0 iph
04/26/2015 08:47 Dry 32.7F 47F - - - - - 0 mhos 2 Snow Slight 0.07 in 0.0 iph
04/26/2015 08:41 Dry 32.7F 47F - - - - - 0 mhos 1 None None 0.07 in 0.0 iph
04/26/2015 08:37 Dry 32.7F 47F - - - - - 0 mhos 1 None None 0.07 in 0.0 iph
04/26/2015 08:27 Dry 32.5F 47F - - - - - 0 mhos 1 None None 0.07 in 0.0 iph
04/26/2015 08:22 Dry 32.5F 47F - - - - - 0 mhos 1 None None 0.07 in 0.0 iph
04/26/2015 08:17 Dry 32.4F 47F - - - - - 0 mhos 1 None None 0.07 in 0.0 iph
04/26/2015 08:10 Dry 32.2F 47F - - - - - 0 mhos 0 None None 0.07 in 0.0 iph
04/26/2015 08:06 Dry 32.0F 47F - - - - - 0 mhos 0 None None 0.07 in 0.0 iph
04/26/2015 07:56 Dry 32.0F 47F - - - - - 0 mhos 0 None None 0.07 in 0.0 iph
04/26/2015 07:52 Dry 31.8F 47F - - - - - 0 mhos 0 None None 0.07 in 0.0 iph
04/26/2015 07:46 Dry 31.6F 47F - - - - - 0 mhos 0 None None 0.07 in 0.0 iph
04/26/2015 07:40 Dry 31.6F 47F - - - - - 0 mhos 0 None None 0.07 in 0.0 iph
04/26/2015 07:36 Dry 31.5F 47F - - - - - 0 mhos 0 None None 0.07 in 0.0 iph
Date/Time
(MDT)
Sf
Temp Chem Water Layer Surface Precipitation
Sf Sub Frz Factor Pct Depth IcePct Cond Salin Type Intens Accum Rate
04/26/2015 07:26 Dry 31.5F 47F - - - - - 0 mhos 0 None None 0.07 in 0.0 iph
04/26/2015 07:22 Dry 31.5F 47F - - - - - 0 mhos 0 None None 0.07 in 0.0 iph
04/26/2015 07:16 Dry 31.3F 47F - - - - - 0 mhos 0 None None 0.07 in 0.0 iph
04/26/2015 07:11 Dry 31.3F 47F - - - - - 0 mhos 0 None None 0.07 in 0.0 iph
04/26/2015 07:06 Dry 31.1F 47F - - - - - 0 mhos 0 None None 0.07 in 0.0 iph
04/26/2015 06:56 Dry 31.1F 47F - - - - - 0 mhos 0 None None 0.07 in 0.0 iph
04/26/2015 06:52 Dry 30.9F 47F - - - - - 0 mhos 0 None None 0.07 in 0.0 iph
04/26/2015 06:46 Dry 30.9F 47F - - - - - 0 mhos 0 None None 0.07 in 0.0 iph
04/26/2015 06:40 Dry 30.9F 47F - - - - - 0 mhos 0 None None 0.07 in 0.0 iph
04/26/2015 06:36 Dry 30.9F 47F - - - - - 0 mhos 0 None None 0.07 in 0.0 iph
04/26/2015 06:26 Dry 31.3F 47F - - - - - 0 mhos 0 None None 0.07 in 0.0 iph
04/26/2015 06:22 Dry 31.1F 47F - - - - - 0 mhos 0 None None 0.07 in 0.0 iph
04/26/2015 06:16 Dry 31.3F 47F - - - - - 0 mhos 0 None None 0.07 in 0.0 iph
04/26/2015 06:09 Dry 31.1F 47F - - - - - 0 mhos 0 None None 0.07 in 0.0 iph
04/26/2015 06:06 Dry 31.1F 47F - - - - - 0 mhos 0 None None 0.07 in 0.0 iph
Date/Time
(MDT)
Sf
Temp Chem Water Layer Surface Precipitation
Sf Sub Frz Factor Pct Depth IcePct Cond Salin Type Intens Accum Rate
04/26/2015 05:56 Dry 31.1F 47F - - - - - 0 mhos 0 None None 0.07 in 0.0 iph
04/26/2015 05:53 Dry 31.1F 47F - - - - - 0 mhos 0 None None 0.07 in 0.0 iph
04/26/2015 05:46 Dry 31.5F 48F - - - - - 0 mhos 0 None None 0.07 in 0.0 iph
04/26/2015 05:41 Dry 31.3F 48F - - - - - 0 mhos 1 None None 0.07 in 0.0 iph
04/26/2015 05:36 Dry 31.3F 48F - - - - - 0 mhos 1 None None 0.07 in 0.0 iph
04/26/2015 05:26 Dry 31.5F 48F - - - - - 0 mhos 1 None None 0.07 in 0.0 iph
04/26/2015 05:23 Dry 31.5F 48F - - - - - 0 mhos 1 None None 0.07 in 0.0 iph
04/26/2015 05:15 Dry 31.5F 48F - - - - - 0 mhos 1 None None 0.07 in 0.0 iph
04/26/2015 05:10 Dry 31.5F 48F - - - - - 0 mhos 1 None None 0.07 in 0.0 iph
04/26/2015 05:05 Dry 31.5F 48F - - - - - 0 mhos 1 None None 0.07 in 0.0 iph
04/26/2015 04:55 Dry 31.6F 48F - - - - - 0 mhos 1 None None 0.07 in 0.0 iph
04/26/2015 04:52 Dry 31.6F 48F - - - - - 0 mhos 1 None None 0.07 in 0.0 iph
04/26/2015 04:45 Dry 31.8F 48F - - - - - 0 mhos 1 None None 0.07 in 0.0 iph
04/26/2015 04:40 Dry 31.8F 48F - - - - - 0 mhos 1 None None 0.07 in 0.0 iph
04/26/2015 04:35 Dry 31.8F 48F - - - - - 0 mhos 1 None None 0.07 in 0.0 iph
Date/Time
(MDT)
Sf
Temp Chem Water Layer Surface Precipitation
Sf Sub Frz Factor Pct Depth IcePct Cond Salin Type Intens Accum Rate
04/26/2015 04:25 Dry 31.8F 48F - - - - - 0 mhos 1 None None 0.07 in 0.0 iph
04/26/2015 04:23 Dry 31.8F 48F - - - - - 0 mhos 1 None None 0.07 in 0.0 iph
04/26/2015 04:15 Dry 31.8F 48F - - - - - 0 mhos 1 None None 0.07 in 0.0 iph
04/26/2015 04:10 Dry 31.8F 48F - - - - - 0 mhos 1 None None 0.07 in 0.0 iph
04/26/2015 04:05 Dry 31.8F 48F - - - - - 0 mhos 1 None None 0.07 in 0.0 iph
04/26/2015 03:55 Dry 32.0F 48F - - - - - 0 mhos 1 Snow Slight 0.07 in 0.0 iph
04/26/2015 03:52 Dry 32.0F 48F - - - - - 0 mhos 1 Snow Slight 0.07 in 0.0 iph
04/26/2015 03:45 Dry 32.2F 48F - - - - - 0 mhos 1 Snow Slight 0.07 in 0.0 iph
04/26/2015 03:41 Dry 32.2F 48F - - - - - 0 mhos 1 Snow Slight 0.07 in 0.0 iph
04/26/2015 03:35 Dry 32.2F 48F - - - - - 0 mhos 1 Snow Slight 0.07 in 0.0 iph
04/26/2015 03:25 Dry 32.4F 48F - - - - - 0 mhos 3 Snow Slight 0.07 in 0.0 iph
04/26/2015 03:23 Dry 32.4F 48F - - - - - 0 mhos 3 Snow Slight 0.07 in 0.0 iph
04/26/2015 03:15 Dry 32.4F 48F - - - - - 0 mhos 5 Snow Slight 0.07 in 0.0 iph
04/26/2015 03:10 Dry 32.4F 48F - - - - - 0 mhos 5 Snow Slight 0.07 in 0.0 iph
04/26/2015 03:05 Dry 32.5F 48F - - - - - 0 mhos 6 Snow Slight 0.07 in 0.0 iph
Date/Time
(MDT)
Sf
Temp Chem Water Layer Surface Precipitation
Sf Sub Frz Factor Pct Depth IcePct Cond Salin Type Intens Accum Rate
04/26/2015 02:55 Dry 32.7F 48F - - - - - 0 mhos 6 Snow Slight 0.07 in 0.0 iph
04/26/2015 02:53 Dry 32.7F 48F - - - - - 0 mhos 6 None None 0.07 in 0.0 iph
04/26/2015 02:45 Dry 32.9F 48F - - - - - 0 mhos 7 None None 0.07 in 0.0 iph
04/26/2015 02:40 Dry 32.9F 49F - - - - - 0 mhos 7 None None 0.07 in 0.0 iph
04/26/2015 02:35 Dry 32.9F 49F - - - - - 0 mhos 7 Snow Slight 0.07 in 0.0 iph
04/26/2015 02:25 Dry 32.9F 49F - - - - - 0 mhos 7 None None 0.07 in 0.0 iph
04/26/2015 02:24 Dry 33.1F 49F - - - - - 0 mhos 8 None None 0.07 in 0.0 iph
04/26/2015 02:15 Dry 33.1F 49F - - - - - 0 mhos 8 None None 0.07 in 0.0 iph
04/26/2015 02:10 Dry 33.1F 49F - - - - - 0 mhos 8 None None 0.07 in 0.0 iph
04/26/2015 02:04 Dry 33.1F 49F - - - - - 0 mhos 8 None None 0.07 in 0.0 iph
04/26/2015 01:54 Dry 33.1F 49F - - - - - 0 mhos 9 None None 0.07 in 0.0 iph
04/26/2015 01:54 Dry 33.1F 49F - - - - - 0 mhos 9 None None 0.07 in 0.0 iph
04/26/2015 01:44 Dry 33.1F 49F - - - - - 0 mhos 9 None None 0.07 in 0.0 iph
04/26/2015 01:40 Trace Moisture 33.3F 49F - 5 - - - 0 mhos 9 None None 0.07 in 0.0 iph
04/26/2015 01:34 Trace Moisture 33.1F 49F - 5 - - - 0 mhos 10 None None 0.07 in 0.0 iph
Date/Time
(MDT)
Sf
Temp Chem Water Layer Surface Precipitation
Sf Sub Frz Factor Pct Depth IcePct Cond Salin Type Intens Accum Rate
04/26/2015 01:24 Trace Moisture 33.8F 49F - 5 - - - 0 mhos 10 None None 0.07 in 0.0 iph
04/26/2015 01:23 Trace Moisture 33.4F 49F - 5 - - - 0 mhos 10 None None 0.07 in 0.0 iph
04/26/2015 01:14 Trace Moisture 33.4F 49F - 5 - - - 0 mhos 10 None None 0.07 in 0.0 iph
04/26/2015 01:10 Dry 33.3F 49F - - - - - 0 mhos 13 None None 0.07 in 0.0 iph
04/26/2015 01:04 Wet 33.6F 49F 32F 5 0% 0.00 in 0% 0 mhos 13 None None 0.07 in 0.0 iph
04/26/2015 00:54 Wet 33.8F 49F 32F 5 0% 0.00 in 0% 0 mhos 13 None None 0.07 in 0.0 iph
04/26/2015 00:52 Wet 34.0F 49F 32F 5 0% 0.00 in 0% 0 mhos 13 None None 0.07 in 0.0 iph
04/26/2015 00:44 Wet 34.2F 49F 32F 5 0% 0.00 in 0% 0 mhos 13 None None 0.07 in 0.0 iph
04/26/2015 00:40 Wet 34.2F 49F 32F 5 0% 0.00 in 0% 0 mhos 14 None None 0.07 in 0.0 iph
04/26/2015 00:34 Wet 34.3F 49F 32F 5 0% 0.00 in 0% 0 mhos 14 None None 0.07 in 0.0 iph
04/26/2015 00:24 Wet 34.5F 49F 32F 5 0% 0.00 in 0% 0 mhos 14 None None 0.07 in 0.0 iph
04/26/2015 00:23 Wet 34.7F 49F 32F 5 0% 0.00 in 0% 0 mhos 14 None None 0.07 in 0.0 iph
04/26/2015 00:14 Wet 34.9F 49F 32F 5 0% 0.00 in 0% 0 mhos 14 None None 0.07 in 0.0 iph
04/26/2015 00:05 Wet 35.1F 49F 32F 5 0% 0.00 in 0% 0 mhos 14 None None 0.07 in 0.0 iph
04/26/2015 00:04 Wet 35.2F 49F 32F 5 0% 0.00 in 0% 0 mhos 14 None None 0.07 in 0.0 iph
Date/Time
(MDT)
Sf
Temp Chem Water Layer Surface Precipitation
Sf Sub Frz Factor Pct Depth IcePct Cond Salin Type Intens Accum Rate
04/25/2015 23:54 Wet 35.6F 49F 32F 5 0% 0.00 in 0% 0 mhos 14 None None 0.07 in 0.0 iph
04/25/2015 23:44 Wet 35.6F 49F 32F 5 0% 0.00 in 0% 0 mhos 14 None None 0.07 in 0.0 iph
04/25/2015 23:40 Wet 35.6F 49F 32F 5 0% 0.00 in 0% 0 mhos 14 None None 0.07 in 0.0 iph
04/25/2015 23:34 Wet 36.0F 49F 32F 5 0% 0.00 in 0% 0 mhos 14 None None 0.07 in 0.0 iph
04/25/2015 23:24 Wet 36.0F 49F 32F 5 0% 0.00 in 0% 0 mhos 14 None None 0.07 in 0.0 iph
04/25/2015 23:23 Wet 36.0F 49F 32F 5 0% 0.00 in 0% 0 mhos 14 None None 0.07 in 0.0 iph
04/25/2015 23:13 Wet 36.3F 49F 32F 5 0% 0.00 in 0% 0 mhos 13 None None 0.07 in 0.0 iph
04/25/2015 23:10 Wet 36.3F 49F 32F 5 0% 0.00 in 0% 0 mhos 14 None None 0.07 in 0.0 iph
04/25/2015 23:03 Wet 36.5F 49F 32F 5 0% 0.00 in 0% 0 mhos 13 None None 0.07 in 0.0 iph
04/25/2015 22:53 Wet 36.7F 49F 32F 5 0% 0.00 in 0% 0 mhos 13 None None 0.07 in 0.0 iph
04/25/2015 22:53 Wet 36.7F 49F 32F 5 0% 0.00 in 0% 0 mhos 13 None None 0.07 in 0.0 iph
04/25/2015 22:43 Wet 36.7F 49F 32F 5 0% 0.00 in 0% 0 mhos 12 None None 0.07 in 0.0 iph
04/25/2015 22:40 Wet 37.0F 49F 32F 5 0% 0.00 in 0% 0 mhos 12 None None 0.07 in 0.0 iph
04/25/2015 22:33 Wet 37.2F 49F 32F 5 0% 0.00 in 0% 0 mhos 12 None None 0.07 in 0.0 iph
04/25/2015 22:23 Wet 37.4F 49F 32F 5 0% 0.00 in 0% 0 mhos 10 None None 0.07 in 0.0 iph
Date/Time
(MDT)
Sf
Temp Chem Water Layer Surface Precipitation
Sf Sub Frz Factor Pct Depth IcePct Cond Salin Type Intens Accum Rate
04/25/2015 22:22 Wet 37.6F 49F 32F 5 0% 0.00 in 0% 0 mhos 10 None None 0.07 in 0.0 iph
04/25/2015 22:13 Wet 37.6F 50F 32F 5 0% 0.00 in 0% 0 mhos 9 None None 0.07 in 0.0 iph
04/25/2015 22:10 Wet 37.6F 49F 32F 5 0% 0.00 in 0% 0 mhos 9 None None 0.07 in 0.0 iph
04/25/2015 22:03 Wet 37.4F 50F 32F 5 0% 0.00 in 0% 0 mhos 8 Unidentified Slight 0.07 in 0.0 iph
04/25/2015 21:53 Wet 37.2F 49F 32F 5 0% 0.00 in 0% 0 mhos 7 Snow Slight 0.07 in 0.0 iph
04/25/2015 21:53 Wet 37.2F 50F 32F 5 0% 0.00 in 0% 0 mhos 7 Snow Slight 0.07 in 0.0 iph
04/25/2015 21:43 Wet 36.9F 50F 32F 5 0% 0.00 in 0% 0 mhos 7 Snow Slight 0.07 in 0.0 iph
04/25/2015 21:40 Wet 36.7F 50F 32F 5 0% 0.00 in 0% 0 mhos 10 Snow Slight 0.07 in 0.0 iph
04/25/2015 21:33 Wet 36.7F 50F 32F 5 0% 0.00 in 0% 0 mhos 10 Snow Slight 0.07 in 0.0 iph
04/25/2015 21:23 Wet 36.7F 50F 32F 5 0% 0.00 in 0% 0 mhos 9 Snow Slight 0.07 in 0.0 iph
04/25/2015 21:23 Wet 36.7F 50F 32F 5 0% 0.00 in 0% 0 mhos 9 Snow Slight 0.07 in 0.0 iph
04/25/2015 21:13 Wet 36.7F 50F 32F 5 0% 0.00 in 0% 0 mhos 10 Snow Slight 0.07 in 0.0 iph
04/25/2015 21:09 Wet 36.7F 50F 32F 5 0% 0.00 in 0% 0 mhos 10 Snow Slight 0.07 in 0.0 iph
04/25/2015 21:03 Wet 37.0F 50F 32F 5 0% 0.00 in 0% 0 mhos 15 Snow Slight 0.07 in 0.0 iph
04/25/2015 20:53 Wet 38.1F 50F 32F 5 0% 0.00 in 0% 0 mhos 21 Snow Slight 0.07 in 0.0 iph
Date/Time
(MDT)
Sf
Temp Chem Water Layer Surface Precipitation
Sf Sub Frz Factor Pct Depth IcePct Cond Salin Type Intens Accum Rate
04/25/2015 20:53 Wet 38.1F 50F 32F 5 0% 0.00 in 0% 0 mhos 21 Snow Slight 0.07 in 0.0 iph
04/25/2015 20:43 Wet 39.2F 50F 32F 5 0% 0.00 in 0% 0 mhos 22 Snow Slight 0.07 in 0.0 iph
04/25/2015 20:39 Wet 39.6F 50F 32F 5 0% 0.00 in 0% 0 mhos 22 Snow Slight 0.07 in 0.0 iph
04/25/2015 20:33 Wet 40.5F 50F 32F 5 0% 0.00 in 0% 0 mhos 21 Snow Slight 0.07 in 0.0 iph
04/25/2015 20:22 Wet 40.6F 50F 32F 5 0% 0.00 in 0% 0 mhos 17 Snow Slight 0.07 in 0.0 iph
04/25/2015 20:22 Wet 40.8F 50F 32F 5 0% 0.00 in 0% 0 mhos 17 Snow Slight 0.07 in 0.0 iph
04/25/2015 20:12 Wet 40.6F 50F 32F 5 0% 0.00 in 0% 0 mhos 15 Snow Slight 0.07 in 0.0 iph
04/25/2015 20:09 Wet 41.4F 50F 32F 5 0% 0.00 in 0% 0 mhos 19 Snow Slight 0.07 in 0.0 iph
04/25/2015 20:02 Wet 41.2F 50F 32F 5 0% 0.00 in 0% 0 mhos 19 Unidentified Slight 0.07 in 0.0 iph
04/25/2015 19:52 Wet 41.5F 50F 32F 5 0% 0.00 in 0% 0 mhos 17 Snow Slight 0.07 in 0.0 iph
04/25/2015 19:52 Wet 41.7F 50F 32F 5 0% 0.00 in 0% 0 mhos 17 Snow Slight 0.07 in 0.0 iph
Change End Date:
Copyright © 1998-2005 Surface Systems, Inc.
All Rights Reserved
Send comments about the data to:
SCAN Web ® is a registered trademark of Surface Systems, Inc.
SCAN Web Version 5.6